Roros Lufthavn, Norway

6:41 AM CET on December 14, 2019 (GMT +0100)
Roros

Weather History for ENRO - October, 2019

Change the Weather History Date:

Friday, October 4, 2019

  Actual Average Record
Temperature  
Mean Temperature 25 °F -  
Max Temperature 33 °F 45 °F 59 °F (2005)
Min Temperature 17 °F 34 °F 17 °F (2016)
Degree Days  
Heating Degree Days 40    
Moisture  
Dew Point 23 °F    
Average Humidity 83    
Maximum Humidity 100    
Minimum Humidity 60    
Precipitation  
Precipitation 0.00 in - - ()
Sea Level Pressure  
Sea Level Pressure 30.03 in    
Wind  
Wind Speed 6 mph ()    
Max Wind Speed 10 mph    
Max Gust Speed -    
Visibility 6.2 miles    
Events Snow    
Averages and records for this station are not official NWS values.
T = Trace of Precipitation, MM = Missing Value Source: Averaged Metar Reports

Daily Weather History Graph

Daily Weather History Graph

Search for Another Location

Airport or City:

Astronomy

Oct. 04, 2019 Rise Set
Actual Time 7:29 AM CEST 6:36 PM CEST
Civil Twilight 6:43 AM CEST 7:21 PM CEST
Nautical Twilight 5:51 AM CEST 8:13 PM CEST
Astronomical Twilight 4:55 AM CEST 9:09 PM CEST
Moon 3:41 PM CEST (10/4) 8:52 PM CEST (10/4)
Length of Visible Light 12h 37m
Length of Day
11h 07m
Waxing Crescent, 37% of the Moon is Illuminated
Oct 4
Waxing Crescent
Oct 5
First Quarter
Oct 13
Full
Oct 21
Last Quarter
Oct 28
New

Hourly Weather History & Observations

Time (CEST) Temp. Windchill Dew Point Humidity Pressure Visibility Wind Dir Wind Speed Gust Speed Precip Events Conditions
12:20 AM 30.2 °F - 28.4 °F 93% 30.04 in 5.6 mi Variable 2.3 mph - N/A Snow Light Snow
12:50 AM 30.2 °F 24.3 °F 28.4 °F 93% 30.04 in 6.2 mi Variable 5.8 mph - N/A Snow Light Snow
1:20 AM 30.2 °F 23.4 °F 28.4 °F 93% 30.04 in 6.2 mi East 6.9 mph - N/A Snow Light Snow
1:50 AM 30.2 °F 22.6 °F 26.6 °F 86% 30.01 in 6.2 mi East 8.1 mph - N/A Snow Light Snow
2:20 AM 30.2 °F 21.3 °F 26.6 °F 86% 30.01 in 6.2 mi East 10.4 mph - N/A Snow Light Snow
2:50 AM 30.2 °F 22.6 °F 26.6 °F 86% 30.01 in 6.2 mi East 8.1 mph - N/A Snow Light Snow Showers
3:20 AM 30.2 °F 22.6 °F 26.6 °F 86% 30.01 in 6.2 mi East 8.1 mph - N/A   Overcast
3:50 AM 28.4 °F 22.2 °F 26.6 °F 93% 30.01 in 6.2 mi East 5.8 mph - N/A   Overcast
4:20 AM 28.4 °F 20.4 °F 24.8 °F 86% 30.01 in 6.2 mi East 8.1 mph - N/A Snow Light Snow Showers
4:50 AM 28.4 °F 20.4 °F 24.8 °F 86% 30.01 in 6.2 mi East 8.1 mph - N/A Snow Light Snow Showers
5:20 AM 28.4 °F 20.4 °F 24.8 °F 86% 30.01 in 6.2 mi East 8.1 mph - N/A Snow Light Snow Showers
5:50 AM 28.4 °F 20.4 °F 24.8 °F 86% 30.01 in 6.2 mi East 8.1 mph - N/A Snow Light Snow
6:20 AM 28.4 °F 23.3 °F 24.8 °F 86% 30.01 in 6.2 mi East 4.6 mph - N/A Snow Light Snow
6:50 AM 28.4 °F 21.2 °F 24.8 °F 86% 30.01 in 6.2 mi East 6.9 mph - N/A Snow Light Snow
7:20 AM 28.4 °F 23.3 °F 24.8 °F 86% 30.01 in 6.2 mi ESE 4.6 mph - N/A Snow Light Snow
7:50 AM 28.4 °F 23.3 °F 24.8 °F 86% 30.04 in 6.2 mi East 4.6 mph - N/A   Mostly Cloudy
8:20 AM 28.4 °F 24.6 °F 24.8 °F 86% 30.04 in 6.2 mi SE 3.5 mph - N/A   Mostly Cloudy
8:50 AM 28.4 °F 22.2 °F 24.8 °F 86% 30.04 in 6.2 mi ESE 5.8 mph - N/A   Mostly Cloudy
9:20 AM 28.4 °F 21.2 °F 23.0 °F 80% 30.04 in 6.2 mi SE 6.9 mph - N/A   Mostly Cloudy
9:50 AM 28.4 °F 20.4 °F 23.0 °F 80% 30.04 in 6.2 mi ESE 8.1 mph - N/A   Mostly Cloudy
10:20 AM 28.4 °F 21.2 °F 23.0 °F 80% 30.04 in 6.2 mi ESE 6.9 mph - N/A   Mostly Cloudy
10:50 AM 28.4 °F 19.7 °F 23.0 °F 80% 30.04 in 6.2 mi ESE 9.2 mph - N/A   Mostly Cloudy
11:20 AM 28.4 °F 19.1 °F 23.0 °F 80% 30.04 in 6.2 mi ESE 10.4 mph - N/A   Mostly Cloudy
11:50 AM 30.2 °F 21.9 °F 23.0 °F 75% 30.04 in 6.2 mi SSE 9.2 mph - N/A   Mostly Cloudy
12:20 PM 32.0 °F 24.2 °F 23.0 °F 69% 30.04 in 6.2 mi South 9.2 mph - N/A   Mostly Cloudy
12:50 PM 32.0 °F 24.2 °F 24.8 °F 75% 30.04 in 6.2 mi SE 9.2 mph - N/A   Mostly Cloudy
1:20 PM 32.0 °F 25.6 °F 23.0 °F 69% 30.04 in 6.2 mi SSE 6.9 mph - N/A   Scattered Clouds
1:50 PM 32.0 °F 23.6 °F 23.0 °F 69% 30.04 in 6.2 mi ESE 10.4 mph - N/A   Partly Cloudy
2:20 PM 33.8 °F 25.8 °F 23.0 °F 65% 30.04 in 6.2 mi ESE 10.4 mph - N/A   Partly Cloudy
2:50 PM 33.8 °F 26.4 °F 21.2 °F 60% 30.01 in 6.2 mi SE 9.2 mph - N/A   Scattered Clouds
3:20 PM 33.8 °F 25.8 °F 23.0 °F 65% 30.01 in 6.2 mi SSE 10.4 mph - N/A   Scattered Clouds
3:50 PM 32.0 °F 23.6 °F 23.0 °F 69% 30.01 in 6.2 mi SE 10.4 mph - N/A   Scattered Clouds
4:20 PM 32.0 °F 25.6 °F 23.0 °F 69% 30.01 in 6.2 mi SE 6.9 mph - N/A   Mostly Cloudy
5:20 PM 32.0 °F 25.6 °F 23.0 °F 69% 30.01 in 6.2 mi SE 6.9 mph - N/A   Mostly Cloudy
5:50 PM 30.2 °F 24.3 °F 21.2 °F 69% 30.01 in 6.2 mi SSW 5.8 mph - N/A   Mostly Cloudy
6:20 PM 30.2 °F 26.7 °F 23.0 °F 75% 30.01 in 6.2 mi SSW 3.5 mph - N/A   Mostly Cloudy
6:50 PM 28.4 °F 23.3 °F 23.0 °F 80% 30.04 in 6.2 mi East 4.6 mph - N/A   Mostly Cloudy
7:20 PM 26.6 °F 21.2 °F 21.2 °F 80% 30.04 in 6.2 mi ESE 4.6 mph - N/A   Partly Cloudy
7:50 PM 26.6 °F 22.6 °F 23.0 °F 86% 30.04 in - ESE 3.5 mph - N/A   Clear
8:20 PM 24.8 °F 19.1 °F 21.2 °F 86% 30.04 in - SE 4.6 mph - N/A   Clear
8:50 PM 23.0 °F - 21.2 °F 93% 30.04 in - Variable 2.3 mph - N/A   Clear
9:20 PM 21.2 °F - 21.2 °F 100% 30.04 in - Variable 2.3 mph - N/A   Clear
9:50 PM 21.2 °F - 21.2 °F 100% 30.06 in 6.2 mi SSW 2.3 mph - N/A   Partly Cloudy
10:20 PM 19.4 °F - 19.4 °F 100% 30.06 in 6.2 mi Calm Calm - N/A   Unknown
10:50 PM 17.6 °F - 17.6 °F 100% 30.06 in 6.2 mi Variable 1.2 mph - N/A   Partly Cloudy
11:20 PM 17.6 °F - 17.6 °F 100% 30.06 in 6.2 mi SW 1.2 mph - N/A   Partly Cloudy
11:50 PM 17.6 °F - 17.6 °F 100% 30.06 in 6.2 mi Variable 1.2 mph - N/A   Partly Cloudy